User: anonymous   Login
Location: Albany
(35.0000°S, 118.0000°E)
Time: 02:20:30
(UTC-05:00)
Language:

TRMM - Orbit

View from above orbital plane
View from above orbital plane
View from above satellite
View from above satellite

Ground track
Ground track

The orbit data is extracted from the following two-line orbital elements,

1 25063U 97074A   15061.50176904  .00094517  00000-0  61688-3 0  9996
2 25063 034.9509 214.8099 0003110 043.1812 005.0740 15.74568928985121
Epoch (UTC): 02 March 2015 12:02:32
Eccentricity: 0.0003110
inclination: 34.9509°
perigee height: 344 km
apogee height: 348 km
right ascension of ascending node: 214.8099°
argument of perigee: 43.1812°
revolutions per day: 15.74568928
mean anomaly at epoch: 5.0740°
orbit number at epoch: 98512

The dashed part of the orbit path shows where the satellite is in the earth's shadow,  

DLR